ARIANE 2 DEB, 27043

Orbit data source: Space-Track

ARIANE 2 DEB, 27043 is space debris in HEO originally from a launch on Fri, 27 Jan 1989 UTC launched from the French Guiana (FRGUI). Debris objects in space refer to the collection of defunct objects orbiting the Earth. Examples of debris include non-operational satellites, rocket bodies, and fragments generated from explosions, collisions, or faulty payload assembly.

Loading next visibility...
Identifier
27043, 1989-006Y
Orbit
HEO
Country
Flag of FRFR
Related business
Manufacturer
EADS/LV
Mission
Spacecraft
Bus & Motor
Unknown
Mass
Unknown
Launch date (UTC)
1989-01-27 (37 years ago)
Launch vehicle
Unknown
Launch site
French Guiana (FRGUI)
Object type
Payload
Rocket body
Debris
Shape & HBR
Unknown shape, 0.3 m
Radar Cross Section
Medium (>0.1 m² and <1 m²)

Expand to show TLE details & history
Last TLE update: 2 weeks ago

TLE from 2 weeks ago
0 ARIANE 2 DEB
1 27043U 89006Y   26162.64355788 -.00000075  00000-0 -16820-2 0  9995
2 27043   8.0355 281.8750 7113433  37.4475 340.3892  2.25080863204382
Epoch: 2026-06-11T15:26Z
TLE epoch observation values (Epoch: 2026-06-11T15:26:43.400Z)
Latitude
-7.11161°
Longitude
89.04067°
Altitude
7,275.828 km
Speed
6.494 km/s
True Right ascension
14h 42m 49s
True Declination
-7° 05' 23"
Sunlit
Object was in daylight at epoch
Visualization orbit readout
Latitude
Unknown
Longitude
Unknown
Altitude
Unknown
Speed
Unknown
Apparent Right ascension
Unknown
Apparent Declination
Unknown
Sunlit
N/A
Visualization observer readout
Local Sidereal Time
05:34:32
Azimuth
Unknown
Elevation
Unknown
Doppler factor
Unknown
Orbital elements
Apogee altitude
35,720.555 km
Perigee altitude
722.758 km
Semi-major axis
24,599.794 km
Eccentricity
0.71134
Inclination
8.0355°
RAAN
281.875°
Arg. of periapsis
37.4475°
True anomaly
260.80937°
Mean anomaly
340.3892°
Eccentric anomaly
308.48648°
Mean motion
0.56253 °/min
Orbital period
639.97 mins
BSTAR
-0.001682
Loading maneuver chart data...
Computing Atmospheric mass density...
Loading historical data...
Loading historical data...
Loading historical data...
Loading historical data...
Loading historical data...
Loading historical data...
Loading historical data...

Documentation

Showing up to 5 results
|